Location: Ackersand
(46.2402°N, 7.8742°E)
Time: 17:33:29
(UTC+00:00)

Daily predictions for brighter satellites

Satellite Brightness Start Highest point End
(mag) Time Altitude Azimuth Time Altitude Azimuth Time Altitude Azimuth
Cosmos 2227 4.4 19:52:07 10° NNW 19:57:45 73° WSW 20:03:20 10° SSE
Cosmos 1975 Rocket 4.0 19:59:06 10° SSE 20:02:55 30° E 20:06:46 10° NNE
Cosmos 1470 2.9 20:01:14 10° N 20:05:13 82° W 20:09:09 10° S
ATLAS CENTAUR R/B 3.5 20:03:47 10° NNW 20:07:00 20° NE 20:10:21 10° E
Meteor 1-21 4.2 20:01:22 10° S 20:07:02 80° E 20:12:40 10° NNE
SPOT 5 4.2 20:03:01 10° ESE 20:07:21 28° ENE 20:11:31 10° N
Cosmos 1674 3.8 20:04:16 10° SSE 20:07:23 26° E 20:10:31 10° NNE
Cosmos 1980 Rocket 4.0 20:05:03 10° WSW 20:10:14 37° NW 20:15:26 10° NNE
Cosmos 1674 Rocket 4.3 20:06:20 10° SSW 20:10:40 56° WNW 20:15:00 10° N
Terra 3.3 20:11:06 10° ESE 20:14:48 23° ENE 20:18:31 10° NNE
Cosmos 1726 2.7 20:14:53 10° NNW 20:18:28 57° W 20:22:01 10° S
Lacrosse 5 2.3 20:15:04 10° WNW 20:20:00 54° SW 20:24:51 10° SSE
Cosmos 1315 Rocket 3.3 20:16:57 10° NNW 20:21:04 63° W 20:25:07 10° S
Cosmos 1452 Rocket 3.5 20:20:28 10° SSW 20:25:43 75° ESE 20:31:01 10° NNE
Cosmos 1844 Rocket 3.1 20:20:10 10° NNW 20:25:44 52° ENE 20:30:54 12° SE
SL-8 R/B 3.8 20:22:47 10° WNW 20:27:37 82° NNE 20:32:24 10° ESE
Cosmos 2100 Rocket 4.2 20:24:04 10° N 20:30:22 60° ENE 20:36:23 11° SSE
ARIANE 5 R/B 2.9 20:29:11 12° SSE 20:33:14 58° ENE 20:37:39 10° N
NOSS 3-2 (C) 3.9 20:27:59 10° SW 20:33:37 64° NW 20:40:09 10° NE
Cosmos 1340 4.2 20:32:11 13° SE 20:34:16 20° E 20:37:02 10° NE
Cosmos 1850 Rocket 4.0 20:30:04 10° NNW 20:35:24 85° ENE 20:40:12 13° SSE
FALCON 9 DEB 3.1 20:34:06 10° SW 20:37:27 57° SE 20:40:50 10° ENE
Cosmos 1908 3.5 20:34:04 10° N 20:37:54 54° ENE 20:40:58 15° SSE
ATLAS 3B R/B 3.3 20:32:18 10° S 20:37:54 31° ESE 20:43:39 10° NE
Cosmos 2263 Rocket 3.7 20:33:55 10° NW 20:38:51 31° WSW 20:43:44 10° SSW
SPOT 1/Viking Rocket 3.7 20:34:07 10° S 20:39:15 77° WSW 20:44:25 10° NNW
Cosmos 1758 4.0 20:36:12 10° NNW 20:40:04 51° W 20:43:54 10° S
FALCON 9 DEB 4.4 20:40:01 17° SE 20:40:24 17° SE 20:42:34 10° E
Geosat 4.1 20:37:26 13° SE 20:41:52 74° ENE 20:46:54 10° NNW
Cosmos 1544 Rocket 4.0 20:40:41 10° N 20:45:02 49° ENE 20:48:22 16° SSE
Spot 2 Rocket 3.5 20:40:28 12° SSE 20:45:13 86° ENE 20:50:20 10° NNW
CZ-2C R/B 4.0 20:40:44 10° N 20:45:31 76° WNW 20:50:16 10° SSW
Cosmos 1707 4.0 20:43:00 10° SSW 20:46:41 41° WNW 20:50:24 10° N
Lacrosse 5 rocket 1.4 20:44:35 10° SSW 20:48:03 39° SE 20:51:26 10° ENE
Cosmos 2173 Rocket 4.1 20:42:00 10° N 20:48:24 76° E 20:54:11 13° SSE
ERS-1 Rocket 3.1 20:44:31 14° SSE 20:48:44 64° ENE 20:53:44 10° N
Cosmos 1331 Rocket 4.1 20:44:27 10° S 20:49:33 55° ESE 20:54:43 10° NNE
In-Cosmos 22 4.3 20:44:18 10° SSW 20:49:34 74° WNW 20:54:53 10° N
FALCON 9 DEB 4.2 20:50:01 20° SE 20:50:01 20° SE 20:52:08 10° E
Cosmos 1455 Rocket 3.1 20:45:27 10° N 20:49:56 89° ENE 20:53:47 14° S
Cosmos 2016 Rocket 4.3 20:45:31 10° N 20:51:30 53° ENE 20:56:17 16° SSE
BREEZE-M DEB (TANK) 1.9 20:57:38 10° SW 20:59:58 45° SE 21:04:09 10° ENE
Cosmos 2333 Rocket 2.7 20:55:53 12° S 21:00:46 40° ESE 21:06:05 10° NE
USA 215 3.9 20:56:04 10° ENE 21:01:44 31° SE 21:07:22 10° S
Cosmos 1725 Rocket 4.2 20:57:33 10° N 21:03:40 57° ENE 21:08:13 18° SSE
Cosmos 1626 2.0 21:04:14 16° S 21:07:03 77° E 21:10:45 10° NNE
Cosmos 1953 2.7 21:03:06 10° NNW 21:07:07 61° W 21:10:22 15° S
Cosmos 1302 Rocket 4.5 21:04:49 17° SSE 21:08:30 41° ESE 21:13:24 10° NE
SL-14 R/B 3.5 21:08:37 21° SSE 21:11:08 54° E 21:15:05 10° NNE
Cosmos 2219 Rocket 2.6 21:07:37 16° S 21:11:50 42° ESE 21:17:09 10° NE
Cosmos 1844 3.7 21:07:10 10° NNW 21:12:45 86° WSW 21:16:41 20° SSE
CENTAUR R/B 4.3 21:11:47 10° W 21:17:33 38° NNW 21:24:21 10° NNE
Cosmos 1536 Rocket 3.8 21:15:05 21° SSE 21:17:50 55° E 21:22:13 10° NNE
Cosmos 1802 Rocket 4.1 21:12:16 10° N 21:18:34 83° W 21:23:38 17° S
CZ-4B DEB 4.2 21:19:02 31° SSE 21:20:24 73° ENE 21:23:35 10° N
DNEPR-1 R/B 3.6 21:19:50 10° NNW 21:24:04 68° NE 21:26:37 24° SE
Meteor 1-24 Rocket 4.1 21:21:07 22° SSE 21:24:11 44° E 21:29:22 10° NNE
Cosmos 1025 Rocket 3.4 21:22:42 12° SSW 21:26:41 66° WNW 21:31:02 10° N
Cosmos 2237 Rocket 3.7 21:27:21 16° ESE 21:28:40 18° E 21:32:16 10° ENE
Cosmos 389 Rocket 4.0 21:26:20 10° NNE 21:29:08 23° ENE 21:30:14 20° E
Aureole 1 Rocket 4.5 21:24:28 10° NNW 21:30:16 60° WSW 21:35:49 18° S
Resurs 01 Rocket 4.3 21:31:03 10° WSW 21:32:43 12° W 21:34:24 10° WNW
Cosmos 1461 3.8 21:30:21 10° NW 21:34:13 36° WSW 21:36:05 23° SSW
Cosmos 2360 Rocket 2.9 21:28:40 10° SW 21:34:13 56° WNW 21:39:47 10° NNE
SL-16 R/B 4.2 21:29:34 10° WSW 21:34:29 30° NW 21:39:27 10° N
Cosmos 2228 3.9 21:30:51 10° N 21:34:59 38° ENE 21:36:56 25° SE
USA 267 4.1 21:29:56 10° E 21:36:09 48° NNE 21:42:23 10° NW
Cosmos 2322 Rocket 3.9 21:31:17 10° WSW 21:36:28 35° NW 21:41:41 10° NNE
Cosmos 1486 Rocket 4.5 21:37:12 10° NNW 21:42:18 50° ENE 21:45:12 24° SE
Cosmos 1455 3.9 21:41:28 10° NNE 21:44:28 22° ENE 21:45:44 18° E
SPOT 5 3.9 21:41:32 16° SSW 21:45:16 41° W 21:49:57 10° NNW
ATLAS CENTAUR R/B 1.5 21:41:58 10° NW 21:46:20 75° SW 21:48:22 32° SSE
Cosmos 968 Rocket 3.4 21:45:44 10° NNW 21:50:53 77° ENE 21:53:28 30° SSE
Terra 2.5 21:49:22 21° SSW 21:52:15 47° W 21:56:52 10° NNW
COSMOS 2428 2.7 21:48:21 19° SSW 21:52:32 71° ESE 21:58:17 10° NNE
Cosmos 1300 3.0 21:49:10 10° NNW 21:52:55 59° W 21:54:30 31° SSW
Cosmos 2322 3.8 21:48:43 10° SSW 21:54:22 80° WNW 22:00:04 10° NNE
Cosmos 2061 Rocket 4.5 21:48:21 10° NNW 21:54:39 58° W 21:59:13 19° SSW
FALCON 9 DEB 2.8 21:54:51 59° S 21:55:05 62° SE 21:58:12 10° ENE
Cosmos 1992 Rocket 4.4 21:54:04 30° SSE 21:56:08 45° ESE 22:01:07 10° NNE
Uosat 12 SS-18 rocket 4.1 21:54:41 27° SSW 21:56:56 62° ESE 22:01:50 10° NE
Cosmos 405 4.1 21:57:22 10° NNW 22:00:34 35° W 22:01:49 26° SW
Cosmos 2278 Rocket 2.7 21:55:10 10° NNW 22:00:42 52° ENE 22:04:01 23° SE
ATLAS CENTAUR R/B 3.9 21:59:32 23° SE 22:01:01 26° ESE 22:08:49 10° NE
Cosmos 2058 Rocket 4.2 22:01:40 10° N 22:05:41 32° ENE 22:07:18 25° ESE
Cosmos 1844 Rocket 4.2 22:04:38 10° NW 22:09:18 27° WSW 22:12:33 16° SSW
Cosmos 1340 4.3 22:06:52 14° SW 22:09:38 30° WNW 22:13:01 10° N
SL-8 R/B 4.3 22:05:29 10° WNW 22:09:56 39° SSW 22:10:57 34° S
Cosmos 967 Rocket 4.5 22:05:44 10° NW 22:12:07 85° WSW 22:15:34 30° SSE
Cosmos 1346 Rocket 2.7 22:11:16 42° S 22:12:33 83° E 22:16:36 10° NNE
Cosmos 1726 Rocket 3.8 22:08:55 10° N 22:13:22 61° ENE 22:14:53 38° SE
Cosmos 2233 Rocket 4.1 22:07:38 10° NNW 22:13:45 68° W 22:17:18 26° S
GEOS 3 Rocket 3.7 22:11:17 28° SE 22:14:13 85° NE 22:19:36 10° NW
FALCON 9 DEB 3.1 22:12:38 10° WSW 22:15:42 67° NNW 22:18:48 10° NE
Cosmos 1447 Rocket 4.5 22:15:10 26° S 22:18:57 85° W 22:25:11 10° N
FALCON 9 DEB 2.9 22:18:01 28° WSW 22:19:30 79° NNW 22:22:37 10° ENE
NOSS 0 Rocket 4.0 22:16:43 29° S 22:19:51 60° ESE 22:25:59 10° NE
SL-4 R/B 3.4 22:22:18 22° E 22:22:18 22° E 22:24:02 10° ENE
Meteor 2-5 Rocket 4.4 22:18:55 16° SW 22:23:11 49° WNW 22:28:37 10° N
FALCON 9 DEB 3.3 22:22:05 10° WSW 22:25:10 60° NNW 22:28:15 10° NE
Lacrosse 5 rocket 2.8 22:23:49 10° W 22:27:09 33° NNW 22:30:27 10° NE
Cosmos 1606 Rocket 3.6 22:23:18 10° NNW 22:27:47 75° W 22:29:16 41° S
ATLAS 3B R/B 3.1 22:21:41 10° SW 22:28:10 61° NW 22:34:55 10° NE
Cosmos 1892 Rocket 3.6 22:29:33 44° SSE 22:30:49 69° E 22:35:14 10° NNE
SJ 16-02 3.7 22:28:36 10° NNE 22:31:24 16° NE 22:34:10 10° E
ALOS 2 2.9 22:32:40 37° SE 22:34:07 56° ENE 22:38:25 10° N
Cosmos 1980 3.7 22:35:59 34° S 22:38:24 66° ESE 22:44:03 10° NNE
Cosmos 1441 Rocket 3.8 22:38:21 39° ESE 22:38:43 40° E 22:42:20 10° NNE
Meteor 2-1 Rocket 4.3 22:34:22 10° N 22:39:53 66° ENE 22:42:13 35° SSE
Cosmos 1943 Rocket 4.0 22:35:37 10° N 22:40:06 25° NE 22:44:35 10° ESE
Cosmos 1703 3.7 22:39:40 42° ESE 22:40:11 45° E 22:43:58 10° NNE
Spot 4 3.8 22:39:08 40° S 22:40:49 74° WSW 22:45:36 10° NNW
Cosmos 1503 Rocket 4.0 22:36:20 10° NNW 22:41:45 89° WSW 22:43:52 38° SSE
Cosmos 2333 Rocket 3.6 22:39:47 10° WSW 22:45:05 37° NW 22:50:23 10° NNE
USA 215 3.2 22:38:38 10° NE 22:45:13 86° NW 22:51:46 10° WSW
SAR-Lupe-2 4.3 22:47:05 10° NNE 22:50:27 37° E 22:50:28 37° E
Meteor 2-10 Rocket 4.5 22:48:09 10° NNW 22:52:47 36° W 22:54:49 25° SW
Cosmos 1328 4.4 22:52:30 37° ESE 22:52:53 38° E 22:56:32 10° NNE
Cosmos 2219 Rocket 3.6 22:50:42 10° WSW 22:55:53 35° NW 23:01:04 10° NNE
Cosmos 1464 Rocket 4.0 22:52:44 10° N 22:59:07 82° W 23:02:03 35° S
Cosmos 1867 4.1 22:55:06 10° NW 23:00:18 45° WSW 23:01:49 36° SSW
Cosmos 1626 Rocket 4.0 22:59:58 42° SE 23:00:55 49° E 23:05:13 10° NNE
Cosmos 1607 3.9 22:55:43 10° NW 23:02:09 79° WSW 23:05:04 34° SSE
Thor Agena Rocket 4.2 22:58:08 10° NNE 23:03:09 43° E 23:04:38 34° SE
Cosmos 2346 Rocket 4.4 23:00:49 36° S 23:03:33 86° E 23:09:45 10° N
Cosmos 389 Rocket 4.2 23:01:01 10° NW 23:03:40 21° W 23:04:01 21° W
COBE Rocket 4.2 23:04:31 39° SSW 23:06:12 60° W 23:11:07 10° NNW
SL-16 R/B 2.9 23:06:18 32° SE 23:07:47 38° ESE 23:12:59 10° NE
Cosmos 1602 Rocket 4.3 23:06:53 37° SE 23:07:50 42° E 23:12:04 10° NNE
Cosmos 2237 Rocket 2.3 23:09:08 30° SW 23:12:03 75° WNW 23:17:42 10° NNE
MTI 3.8 23:11:27 10° NNE 23:14:12 70° NNE 23:14:12 70° NNE
Meteor 1-4 Rocket 2.4 23:13:06 10° N 23:16:34 68° ENE 23:16:45 66° E
USA 267 3.2 23:14:47 24° SE 23:18:57 76° SW 23:25:32 10° NW
Cosmos 1816 Rocket 4.4 23:17:16 37° S 23:19:53 83° E 23:26:02 10° N
Cosmos 1455 3.5 23:16:44 10° NNW 23:20:05 29° W 23:20:36 27° WSW
Cosmos 2369 Rocket 3.9 23:17:46 10° N 23:22:41 28° NE 23:27:34 10° ESE
Cosmos 1184 Rocket 4.0 23:22:45 31° W 23:23:04 32° WNW 23:26:03 10° N
Okean 1-7 Rocket 4.1 23:27:36 37° SW 23:28:58 52° WNW 23:33:20 10° N
Cosmos 1777 Rocket 3.9 23:26:18 10° NNW 23:31:37 80° WSW 23:33:25 42° S
Cosmos-2242 3.9 23:27:43 10° N 23:31:55 42° ENE 23:33:23 31° ESE
Cosmos 2034 Rocket 4.1 23:27:03 10° NNW 23:33:11 64° W 23:35:44 35° SSW
Cosmos 1408 4.3 23:37:17 21° E 23:37:45 22° E 23:40:37 10° NE
Cosmos 2297 3.7 23:38:07 10° NNW 23:43:48 82° ENE 23:46:30 32° SSE
Cosmos 1812 Rocket 3.4 23:39:56 10° N 23:44:18 86° W 23:45:17 54° S
Cosmos 2278 Rocket 3.4 23:39:49 10° NW 23:44:28 27° WSW 23:45:51 24° SW
Meteor 1-11 4.1 23:44:20 40° S 23:46:28 85° E 23:52:06 10° NNE
Meteor 1-27 4.4 23:42:18 10° N 23:47:51 65° ENE 23:50:26 32° SSE
Cosmos 724 4.3 23:41:40 10° NW 23:47:53 84° SW 23:50:57 31° SSE
